Location: ????????
(55.6189°N, 38.3031°E)
Time: 14:17:42
(UTC+00:00)

SL-16 R/B - Pass Details

Date: 29 February 2020
Orbit: 843 x 847 km, 71.0° (Epoch: 07 April)

Event Time Altitude Azimuth Distance (km) Brightness Sun altitude
Exits shadow 01:58:53 25° 303° (WNW) 1,637 3.3 -20.5°
Maximum altitude 02:00:20 28° 328° (NNW) 1,531 3.4 -20.3°
Drops below altitude 10° 02:05:13 10° 27° (NNE) 2,477 5.2 -19.6°
Sets 02:08:02 0° 39° (NE) 3,414 6.2 -19.2°
